Time,TemperatureF,DewpointF,PressureIn,WindDirection,WindDirectionDegrees,WindSpeedMPH,WindSpeedGustMPH,Humidity,HourlyPrecipIn,Conditions,Clouds,dailyrainin,SolarRadiationWatts/m^2,SoftwareType,DateUTC
2013-04-11 00:02:00,39.0,30.0,-100.00,SW,221,3.0,8.0,71,0.00,,,0.02,0.000000,,2013-04-11 06:02:00,
2013-04-11 00:12:00,39.0,30.0,-100.00,SW,221,3.0,8.0,71,0.00,,,0.02,0.000000,,2013-04-11 06:12:00,
2013-04-11 00:22:00,39.0,30.0,-100.00,SW,221,3.0,8.0,71,0.00,,,0.02,0.000000,,2013-04-11 06:22:00,
2013-04-11 00:32:00,39.0,30.0,-100.00,SW,221,3.0,8.0,71,0.00,,,0.02,0.000000,,2013-04-11 06:32:00,
2013-04-11 01:02:00,37.0,27.0,-100.00,NE,40,3.0,6.0,66,0.00,,,0.02,0.000000,,2013-04-11 07:02:00,
2013-04-11 01:12:00,37.0,27.0,-100.00,NE,40,3.0,6.0,66,0.00,,,0.02,0.000000,,2013-04-11 07:12:00,
2013-04-11 01:22:00,37.0,27.0,-100.00,NE,40,3.0,6.0,66,0.00,,,0.02,0.000000,,2013-04-11 07:22:00,
2013-04-11 01:31:00,37.0,27.0,-100.00,NE,40,3.0,6.0,66,0.00,,,0.02,0.000000,,2013-04-11 07:31:00,
2013-04-11 02:02:00,34.0,29.0,-100.00,East,85,5.0,8.0,83,0.00,,,0.02,0.000000,,2013-04-11 08:02:00,
2013-04-11 02:12:00,34.0,29.0,-100.00,East,85,5.0,8.0,83,0.00,,,0.02,0.000000,,2013-04-11 08:12:00,
2013-04-11 02:22:00,34.0,29.0,-100.00,East,85,5.0,8.0,83,0.00,,,0.02,0.000000,,2013-04-11 08:22:00,
2013-04-11 02:32:00,34.0,29.0,-100.00,East,85,5.0,8.0,83,0.00,,,0.02,0.000000,,2013-04-11 08:32:00,
2013-04-11 03:02:00,34.0,28.0,-100.00,WNW,292,2.0,7.0,80,0.00,,,0.02,0.000000,,2013-04-11 09:02:00,
2013-04-11 03:12:00,34.0,28.0,-100.00,WNW,292,2.0,7.0,80,0.00,,,0.02,0.000000,,2013-04-11 09:12:00,
2013-04-11 03:22:00,34.0,28.0,-100.00,WNW,292,2.0,7.0,80,0.00,,,0.02,0.000000,,2013-04-11 09:22:00,
2013-04-11 03:32:00,34.0,28.0,-100.00,WNW,292,2.0,7.0,80,0.00,,,0.02,0.000000,,2013-04-11 09:32:00,
2013-04-11 04:02:00,35.0,25.0,-100.00,West,272,1.0,8.0,67,0.00,,,0.02,0.000000,,2013-04-11 10:02:00,
2013-04-11 04:12:00,35.0,25.0,-100.00,West,272,1.0,8.0,67,0.00,,,0.02,0.000000,,2013-04-11 10:12:00,
2013-04-11 04:22:00,35.0,25.0,-100.00,West,272,1.0,8.0,67,0.00,,,0.02,0.000000,,2013-04-11 10:22:00,
2013-04-11 04:32:00,35.0,25.0,-100.00,West,272,1.0,8.0,67,0.00,,,0.02,0.000000,,2013-04-11 10:32:00,
2013-04-11 05:12:00,34.0,24.0,-100.00,West,278,4.0,5.0,66,0.00,,,0.02,0.000000,,2013-04-11 11:12:00,
2013-04-11 05:22:00,34.0,24.0,-100.00,West,278,4.0,5.0,66,0.00,,,0.02,0.000000,,2013-04-11 11:22:00,
2013-04-11 05:32:00,34.0,24.0,-100.00,West,278,4.0,5.0,66,0.00,,,0.02,0.000000,,2013-04-11 11:32:00,
2013-04-11 06:02:00,34.0,24.0,-100.00,WNW,295,2.0,6.0,66,0.00,,,-99.99,0.000000,,2013-04-11 12:02:00,
2013-04-11 06:12:00,34.0,24.0,-100.00,WNW,295,2.0,6.0,66,0.00,,,-99.99,0.000000,,2013-04-11 12:12:00,
2013-04-11 06:22:00,34.0,24.0,-100.00,WNW,295,2.0,6.0,66,0.00,,,-99.99,0.000000,,2013-04-11 12:22:00,
2013-04-11 06:32:00,34.0,24.0,-100.00,WNW,295,2.0,6.0,66,0.00,,,-99.99,0.000000,,2013-04-11 12:32:00,
2013-04-11 07:02:00,31.0,23.0,-100.00,North,5,1.0,7.0,73,0.00,,,-99.99,0.000000,,2013-04-11 13:02:00,
2013-04-11 07:12:00,31.0,23.0,-100.00,North,5,1.0,7.0,73,0.00,,,-99.99,0.000000,,2013-04-11 13:12:00,
2013-04-11 07:22:00,31.0,23.0,-100.00,North,5,1.0,7.0,73,0.00,,,-99.99,0.000000,,2013-04-11 13:22:00,
2013-04-11 07:32:00,31.0,23.0,-100.00,North,5,1.0,7.0,73,0.00,,,-99.99,0.000000,,2013-04-11 13:32:00,
2013-04-11 08:02:00,31.0,26.0,-100.00,East,97,4.0,5.0,80,0.00,,,0.02,9.000000,,2013-04-11 14:02:00,
2013-04-11 08:12:00,31.0,26.0,-100.00,East,97,4.0,5.0,80,0.00,,,0.02,9.000000,,2013-04-11 14:12:00,
2013-04-11 08:22:00,31.0,26.0,-100.00,East,97,4.0,5.0,80,0.00,,,0.02,9.000000,,2013-04-11 14:22:00,
2013-04-11 08:32:00,31.0,26.0,-100.00,East,97,4.0,5.0,80,0.00,,,0.02,9.000000,,2013-04-11 14:32:00,
2013-04-11 11:02:00,42.0,29.0,-100.00,ESE,112,4.0,8.0,60,-99.99,,,0.02,519.000000,,2013-04-11 17:02:00,
2013-04-11 11:12:00,42.0,29.0,-100.00,ESE,112,4.0,8.0,60,-99.99,,,0.02,519.000000,,2013-04-11 17:12:00,
2013-04-11 11:22:00,42.0,29.0,-100.00,ESE,112,4.0,8.0,60,-99.99,,,0.02,519.000000,,2013-04-11 17:22:00,
2013-04-11 11:32:00,42.0,29.0,-100.00,ESE,112,4.0,8.0,60,-99.99,,,0.02,519.000000,,2013-04-11 17:32:00,
2013-04-11 12:02:00,48.0,27.0,-100.00,SE,143,2.0,9.0,43,0.00,,,0.02,707.000000,,2013-04-11 18:02:00,
2013-04-11 12:13:00,48.0,27.0,-100.00,SE,143,2.0,9.0,43,0.00,,,0.02,707.000000,,2013-04-11 18:13:00,
2013-04-11 12:22:00,48.0,27.0,-100.00,SE,143,2.0,9.0,43,0.00,,,0.02,707.000000,,2013-04-11 18:22:00,
2013-04-11 12:32:00,48.0,27.0,-100.00,SE,143,2.0,9.0,43,0.00,,,0.02,707.000000,,2013-04-11 18:32:00,
2013-04-11 13:03:00,46.0,21.0,-100.00,East,101,6.0,12.0,37,0.00,,,0.02,742.000000,,2013-04-11 19:03:00,
2013-04-11 13:13:00,46.0,21.0,-100.00,East,101,6.0,12.0,37,0.00,,,0.02,742.000000,,2013-04-11 19:13:00,
2013-04-11 13:22:00,46.0,21.0,-100.00,East,101,6.0,12.0,37,0.00,,,0.02,742.000000,,2013-04-11 19:22:00,
2013-04-11 13:32:00,46.0,21.0,-100.00,East,101,6.0,12.0,37,0.00,,,0.02,742.000000,,2013-04-11 19:32:00,
2013-04-11 14:02:00,52.0,27.0,-100.00,SE,144,2.0,13.0,37,0.00,,,0.02,864.000000,,2013-04-11 20:02:00,
2013-04-11 14:13:00,52.0,27.0,-100.00,SE,144,2.0,13.0,37,0.00,,,0.02,864.000000,,2013-04-11 20:13:00,
2013-04-11 14:21:00,52.0,27.0,-100.00,SE,144,2.0,13.0,37,0.00,,,0.02,864.000000,,2013-04-11 20:21:00,
2013-04-11 14:32:00,52.0,27.0,-100.00,SE,144,2.0,13.0,37,0.00,,,0.02,864.000000,,2013-04-11 20:32:00,
2013-04-11 15:02:00,53.0,22.0,-100.00,West,280,8.0,16.0,29,0.00,,,0.02,903.000000,,2013-04-11 21:02:00,
2013-04-11 15:12:00,53.0,22.0,-100.00,West,280,8.0,16.0,29,0.00,,,0.02,903.000000,,2013-04-11 21:12:00,
2013-04-11 15:22:00,53.0,22.0,-100.00,West,280,8.0,16.0,29,0.00,,,0.02,903.000000,,2013-04-11 21:22:00,
2013-04-11 15:32:00,53.0,22.0,-100.00,West,280,8.0,16.0,29,0.00,,,0.02,903.000000,,2013-04-11 21:32:00,
2013-04-11 16:03:00,50.0,16.0,-100.00,West,274,12.0,21.0,25,0.00,,,0.02,830.000000,,2013-04-11 22:03:00,
2013-04-11 16:13:00,50.0,16.0,-100.00,West,274,12.0,21.0,25,0.00,,,0.02,830.000000,,2013-04-11 22:13:00,
2013-04-11 16:22:00,50.0,16.0,-100.00,West,274,12.0,21.0,25,0.00,,,0.02,830.000000,,2013-04-11 22:22:00,
2013-04-11 16:32:00,50.0,16.0,-100.00,West,274,12.0,21.0,25,0.00,,,0.02,830.000000,,2013-04-11 22:32:00,
2013-04-11 17:03:00,50.0,17.0,-100.00,WNW,289,11.0,22.0,27,0.00,,,0.02,445.000000,,2013-04-11 23:03:00,
2013-04-11 17:12:00,50.0,17.0,-100.00,WNW,289,11.0,22.0,27,0.00,,,0.02,445.000000,,2013-04-11 23:12:00,
2013-04-11 17:22:00,50.0,17.0,-100.00,WNW,289,11.0,22.0,27,0.00,,,0.02,445.000000,,2013-04-11 23:22:00,
2013-04-11 17:32:00,50.0,17.0,-100.00,WNW,289,11.0,22.0,27,0.00,,,0.02,445.000000,,2013-04-11 23:32:00,
2013-04-11 18:02:00,50.0,16.0,-100.00,West,260,12.0,19.0,26,0.00,,,0.02,497.000000,,2013-04-12 00:02:00,
2013-04-11 18:12:00,50.0,16.0,-100.00,West,260,12.0,19.0,26,0.00,,,0.02,497.000000,,2013-04-12 00:12:00,
2013-04-11 18:22:00,50.0,16.0,-100.00,West,260,12.0,19.0,26,0.00,,,0.02,497.000000,,2013-04-12 00:22:00,
2013-04-11 18:32:00,50.0,16.0,-100.00,West,260,12.0,19.0,26,0.00,,,0.02,497.000000,,2013-04-12 00:32:00,
2013-04-11 19:02:00,47.0,19.0,-100.00,WNW,294,8.0,19.0,32,0.00,,,0.01,271.000000,,2013-04-12 01:02:00,
2013-04-11 19:12:00,47.0,19.0,-100.00,WNW,294,8.0,19.0,32,0.00,,,0.01,271.000000,,2013-04-12 01:12:00,
2013-04-11 19:22:00,47.0,19.0,-100.00,WNW,294,8.0,19.0,32,0.00,,,0.01,271.000000,,2013-04-12 01:22:00,
2013-04-11 19:32:00,47.0,19.0,-100.00,WNW,294,8.0,19.0,32,0.00,,,0.01,271.000000,,2013-04-12 01:32:00,
2013-04-11 20:02:00,47.0,12.0,-100.00,WNW,290,10.0,19.0,24,0.00,,,0.01,190.000000,,2013-04-12 02:02:00,
2013-04-11 20:12:00,47.0,12.0,-100.00,WNW,290,10.0,19.0,24,0.00,,,0.01,190.000000,,2013-04-12 02:12:00,
2013-04-11 20:22:00,47.0,12.0,-100.00,WNW,290,10.0,19.0,24,0.00,,,0.01,190.000000,,2013-04-12 02:22:00,
2013-04-11 20:32:00,47.0,12.0,-100.00,WNW,290,10.0,19.0,24,0.00,,,0.01,190.000000,,2013-04-12 02:32:00,
2013-04-11 21:02:00,41.0,16.0,-100.00,NW,323,6.0,15.0,36,0.00,,,0.00,28.000000,,2013-04-12 03:02:00,
2013-04-11 21:12:00,41.0,16.0,-100.00,NW,323,6.0,15.0,36,0.00,,,0.00,28.000000,,2013-04-12 03:12:00,
2013-04-11 21:22:00,41.0,16.0,-100.00,NW,323,6.0,15.0,36,0.00,,,0.00,28.000000,,2013-04-12 03:22:00,
2013-04-11 21:32:00,41.0,16.0,-100.00,NW,323,6.0,15.0,36,0.00,,,0.00,28.000000,,2013-04-12 03:32:00,
2013-04-11 22:03:00,38.0,18.0,-100.00,NW,308,3.0,14.0,44,0.00,,,0.00,0.000000,,2013-04-12 04:03:00,
2013-04-11 22:13:00,38.0,18.0,-100.00,NW,308,3.0,14.0,44,0.00,,,0.00,0.000000,,2013-04-12 04:13:00,
2013-04-11 22:22:00,38.0,18.0,-100.00,NW,308,3.0,14.0,44,0.00,,,0.00,0.000000,,2013-04-12 04:22:00,
2013-04-11 22:33:00,38.0,18.0,-100.00,NW,308,3.0,14.0,44,0.00,,,0.00,0.000000,,2013-04-12 04:33:00,
2013-04-11 23:03:00,37.0,20.0,-100.00,West,281,4.0,13.0,50,0.00,,,0.00,0.000000,,2013-04-12 05:03:00,
2013-04-11 23:12:00,37.0,20.0,-100.00,West,281,4.0,13.0,50,0.00,,,0.00,0.000000,,2013-04-12 05:12:00,
2013-04-11 23:22:00,37.0,20.0,-100.00,West,281,4.0,13.0,50,0.00,,,0.00,0.000000,,2013-04-12 05:22:00,
2013-04-11 23:32:00,37.0,20.0,-100.00,West,281,4.0,13.0,50,0.00,,,0.00,0.000000,,2013-04-12 05:32:00,